Stations météo

Publicité
Edinburgh/Gogarbank, Grande-Bretagne (3166): Température de l'air & dewpoint: 30.03.2020 20:00:00 - 05.04.2020 20:00:00 (BST)Edinburgh/Gogarbank, Grande-Bretagne (3166): Température de l'air -20cm & Température de l'air -100cm: 30.03.2020 20:00:00 - 05.04.2020 20:00:00 (BST)Edinburgh/Gogarbank, Grande-Bretagne (3166): Vitesse du vent & gusts: 30.03.2020 20:00:00 - 05.04.2020 20:00:00 (BST)Edinburgh/Gogarbank, Grande-Bretagne (3166): Direction du vent: 30.03.2020 20:00:00 - 05.04.2020 20:00:00 (BST)Edinburgh/Gogarbank, Grande-Bretagne (3166): reduced air pressure: 30.03.2020 20:00:00 - 05.04.2020 20:00:00 (BST)Edinburgh/Gogarbank, Grande-Bretagne (3166): visibility: 30.03.2020 20:00:00 - 05.04.2020 20:00:00 (BST)Edinburgh/Gogarbank, Grande-Bretagne (3166): Ensoleillement: 30.03.2020 20:00:00 - 05.04.2020 20:00:00 (BST)Edinburgh/Gogarbank, Grande-Bretagne (3166): Quantités de précipitations: 30.03.2020 20:00:00 - 05.04.2020 20:00:00 (BST)
Date & Time tt [°C] td [°C] tt -20cm [°C] tt -100cm [°C] ff [km/h] ff [knt] fx [km/h] fx [knt] dd ppp [hPa] vv [km] sd [min] rr [mm]
05.04.2020 20:00:00 17,1 3,9 - - 11 6 - - SE 1001,1 50 0 0,0
05.04.2020 19:00:00 18,0 3,6 - - 11 6 - - SSE 1001,5 50 0 0,0
05.04.2020 18:00:00 19,2 3,6 - - 16 9 - - SSE 1002,0 45 54 0,0
05.04.2020 17:00:00 19,2 3,0 - - 22 12 - - S 1002,9 45 18 0,0
05.04.2020 16:00:00 18,7 2,8 - - 21 11 - - SSE 1003,8 28 36 0,0
05.04.2020 15:00:00 16,9 3,0 - - 18 10 - - SSE 1005,1 45 0 0,0
05.04.2020 14:00:00 16,5 2,7 - - 16 9 - - SSE 1005,9 45 6 0,0
05.04.2020 13:00:00 15,1 3,3 - - 15 8 - - SSE 1007,2 40 0 0,0
05.04.2020 12:00:00 13,8 3,9 - - 8 4 - - S 1008,3 45 6 0,0
05.04.2020 11:00:00 12,1 4,4 - - 9 5 - - E 1009,1 25 0 0,0
05.04.2020 10:00:00 9,9 3,4 7,0 7,0 15 8 - - ESE 1009,9 28 0 0,0
05.04.2020 09:00:00 8,6 3,0 - - 16 9 - - ESE 1010,8 30 12 0,0
05.04.2020 08:00:00 8,9 3,0 - - 9 5 - - E 1011,3 40 36 0,0
05.04.2020 07:00:00 7,6 2,6 - - 13 7 - - SE 1011,5 40 0 0,0
05.04.2020 06:00:00 8,7 2,2 - - 9 5 - - NNE 1011,7 45 0 0,0
05.04.2020 05:00:00 9,7 2,6 - - 15 8 50 27 S 1011,1 45 0 0,0
05.04.2020 04:00:00 10,1 2,8 - - 21 11 - - SSW 1011,5 40 0 0,0
05.04.2020 03:00:00 9,9 3,9 - - 11 6 - - S 1012,0 40 0 0,0
05.04.2020 02:00:00 9,7 3,4 - - 21 11 - - SSW 1012,1 45 0 0,0
05.04.2020 01:00:00 9,4 2,0 - - 9 5 - - SSW 1013,0 50 - 0,0
05.04.2020 00:00:00 9,6 3,2 - - 15 8 - - SW 1013,2 45 0 0,0
04.04.2020 23:00:00 9,6 4,3 - - 11 6 - - S 1013,2 30 0 0,0
04.04.2020 22:00:00 8,6 4,0 - - 2 1 - - S 1013,4 27 0 0,0
04.04.2020 21:00:00 9,4 3,8 - - 8 4 - - SSE 1013,7 40 0 0,0
04.04.2020 20:00:00 9,4 3,0 - - 9 5 - - S 1013,7 50 0 0,0
04.04.2020 19:00:00 9,9 2,9 - - 15 8 - - SSW 1013,5 50 0 0,0
04.04.2020 18:00:00 10,1 3,2 - - 16 9 - - SW 1013,7 50 0 0,0
04.04.2020 17:00:00 10,0 3,2 - - 24 13 - - SSW 1014,0 35 0 0,0
04.04.2020 16:00:00 10,3 3,7 - - 24 13 - - SW 1014,1 27 0 0,0
04.04.2020 15:00:00 10,5 3,7 - - 24 13 - - SSW 1014,3 50 0 0,0
04.04.2020 14:00:00 9,7 3,8 - - 26 14 - - SSW 1014,4 40 0 0,0
04.04.2020 13:00:00 10,0 2,4 - - 22 12 - - SW 1014,5 50 0 0,0
04.04.2020 12:00:00 9,9 3,3 - - 21 11 - - SSW 1014,5 30 0 0,0
04.04.2020 11:00:00 9,4 4,4 - - 16 9 - - SSW 1014,7 45 0 0,0
04.04.2020 10:00:00 8,7 3,4 7,0 7,0 11 6 - - WSW 1014,5 50 6 0,0
04.04.2020 09:00:00 7,7 3,7 - - 15 8 - - SW 1014,2 45 24 0,0
04.04.2020 08:00:00 6,0 3,1 - - 11 6 - - SW 1014,3 50 0 0,0
04.04.2020 07:00:00 4,7 2,3 - - 8 4 - - SSW 1014,0 50 0 0,0
04.04.2020 06:00:00 4,7 2,4 - - 9 5 - - SW 1013,7 45 0 0,0
04.04.2020 05:00:00 5,5 3,3 - - 13 7 - - SW 1013,5 35 0 0,0
04.04.2020 04:00:00 6,0 4,0 - - 11 6 - - SW 1013,7 45 0 0,0
04.04.2020 03:00:00 5,9 3,7 - - 9 5 - - SW 1013,7 45 0 0,0
04.04.2020 02:00:00 6,1 3,3 - - 11 6 - - SW 1013,7 50 0 0,0
04.04.2020 01:00:00 5,5 3,1 - - 15 8 - - SW 1013,7 50 - 0,0
04.04.2020 00:00:00 5,4 3,1 - - 13 7 - - WSW 1013,4 50 0 0,0
03.04.2020 23:00:00 6,0 3,9 - - 16 9 - - SW 1013,1 50 0 0,0
03.04.2020 22:00:00 6,3 3,9 - - 11 6 - - WSW 1013,1 50 0 0,0
03.04.2020 21:00:00 6,4 4,1 - - 9 5 - - SW 1013,0 50 0 0,0
03.04.2020 20:00:00 7,2 4,2 - - 13 7 - - WSW 1012,7 50 0 0,0
03.04.2020 19:00:00 7,4 4,4 - - 15 8 - - WSW 1012,8 45 6 0,0
03.04.2020 18:00:00 7,5 4,5 - - 18 10 - - WSW 1012,7 45 0 0,0
03.04.2020 17:00:00 7,7 3,9 - - 21 11 - - WSW 1012,6 29 0 0,0
03.04.2020 16:00:00 7,6 3,9 - - 16 9 - - WSW 1012,6 30 6 0,0
03.04.2020 15:00:00 8,5 2,0 - - 18 10 - - W 1012,8 50 0 0,0
03.04.2020 14:00:00 7,6 0,6 - - 21 11 - - W 1012,9 45 0 0,0
03.04.2020 13:00:00 7,2 0,6 - - 21 11 - - W 1013,0 35 0 0,0
03.04.2020 12:00:00 6,7 0,8 - - 22 12 - - WSW 1013,1 45 0 0,0
03.04.2020 11:00:00 6,3 1,4 - - 18 10 - - WSW 1013,0 29 0 0,0
03.04.2020 10:00:00 5,3 1,6 7,0 7,0 16 9 - - WSW 1012,7 35 0 0,0
03.04.2020 09:00:00 4,5 1,1 - - 18 10 - - WSW 1012,3 29 0 0,0
03.04.2020 08:00:00 3,7 0,9 - - 13 7 - - SW 1012,3 18 0 0,0
03.04.2020 07:00:00 2,3 -0,1 - - 13 7 - - SW 1012,4 30 0 0,0
03.04.2020 06:00:00 1,6 -0,7 - - 11 6 - - SW 1012,4 45 0 0,0
03.04.2020 05:00:00 2,3 -1,0 - - 13 7 - - SW 1012,1 45 0 0,0
03.04.2020 04:00:00 3,1 -0,8 - - 15 8 - - WSW 1012,4 27 0 0,0
03.04.2020 03:00:00 2,3 -1,0 - - 13 7 - - WSW 1012,6 30 0 0,0
03.04.2020 02:00:00 2,1 -1,3 - - 13 7 - - WSW 1012,8 28 0 0,0
03.04.2020 01:00:00 2,3 -1,9 - - 16 9 - - WSW 1012,6 29 - 0,0
03.04.2020 00:00:00 2,8 -3,1 - - 16 9 - - W 1012,6 35 0 0,0
02.04.2020 23:00:00 3,2 -3,2 - - 16 9 - - WSW 1012,4 35 0 0,0
02.04.2020 22:00:00 4,1 -3,0 - - 21 11 - - W 1011,8 40 0 0,0
02.04.2020 21:00:00 4,6 -3,1 - - 15 8 - - WSW 1011,5 40 0 0,0
02.04.2020 20:00:00 5,4 -3,0 - - 22 12 50 27 W 1011,0 45 24 0,0
02.04.2020 19:00:00 7,0 -3,5 - - 35 19 54 29 W 1010,3 45 54 0,0
02.04.2020 18:00:00 8,6 -3,1 - - 34 18 57 31 W 1009,7 45 54 0,0
02.04.2020 17:00:00 9,1 -1,7 - - 35 19 61 33 W 1009,1 40 48 0,0
02.04.2020 16:00:00 9,9 -0,2 - - 31 17 54 29 WNW 1009,0 45 48 0,0
02.04.2020 15:00:00 9,6 1,0 - - 34 18 59 32 W 1008,5 35 18 0,0
02.04.2020 14:00:00 9,2 0,0 - - 35 19 80 43 WNW 1007,9 20 24 0,0
02.04.2020 13:00:00 10,1 0,1 - - 37 20 63 34 W 1007,2 23 18 0,0
02.04.2020 12:00:00 9,1 1,9 - - 34 18 63 34 W 1007,0 24 30 0,0
02.04.2020 11:00:00 9,8 4,8 - - 37 20 63 34 W 1006,4 35 12 0,0
02.04.2020 10:00:00 9,0 3,7 7,2 6,9 37 20 70 38 W 1006,2 16 36 0,0
02.04.2020 09:00:00 9,0 4,1 - - 39 21 57 31 W 1006,4 40 18 0,0
02.04.2020 08:00:00 8,5 5,9 - - 29 16 54 29 WSW 1006,7 50 0 0,0
02.04.2020 07:00:00 8,3 6,0 - - 29 16 50 27 WSW 1007,5 30 0 0,0
02.04.2020 06:00:00 7,6 4,9 - - 29 16 61 33 WSW 1008,3 40 0 0,0
02.04.2020 05:00:00 6,8 3,4 - - 26 14 50 27 WSW 1009,3 45 0 0,0
02.04.2020 04:00:00 7,2 3,3 - - 29 16 57 31 W 1010,8 35 0 0,0
02.04.2020 03:00:00 7,3 2,4 - - 29 16 48 26 W 1011,9 50 0 0,0
02.04.2020 02:00:00 6,8 2,7 - - 21 11 46 25 WSW 1013,2 45 0 0,0
02.04.2020 01:00:00 7,3 3,6 - - 26 14 - - WSW 1014,1 50 - 0,0
02.04.2020 00:00:00 7,8 5,4 - - 24 13 - - WSW 1014,7 50 0 0,0
01.04.2020 23:00:00 8,0 5,9 - - 22 12 - - WSW 1015,1 27 0 0,0
01.04.2020 22:00:00 8,1 6,0 - - 22 12 - - WSW 1016,0 45 0 0,0
01.04.2020 21:00:00 7,9 5,9 - - 21 11 - - WSW 1016,3 50 0 0,0
01.04.2020 20:00:00 8,2 6,1 - - 24 13 - - WSW 1016,6 50 0 0,0
01.04.2020 19:00:00 8,4 5,7 - - 28 15 - - WSW 1017,0 40 18 0,0
01.04.2020 18:00:00 9,6 5,0 - - 31 17 50 27 W 1017,1 45 24 0,0
01.04.2020 17:00:00 10,0 4,0 - - 31 17 46 25 W 1017,6 35 6 0,0
01.04.2020 16:00:00 9,7 3,2 - - 28 15 - - W 1018,1 28 6 0,0
01.04.2020 15:00:00 9,6 2,5 - - 24 13 - - W 1018,9 50 0 0,0
01.04.2020 14:00:00 10,8 2,8 - - 26 14 - - W 1019,4 35 6 0,0
01.04.2020 13:00:00 9,9 2,0 - - 31 17 - - WNW 1020,0 35 18 0,0
01.04.2020 12:00:00 9,4 1,9 - - 24 13 - - W 1020,5 30 36 0,0
01.04.2020 11:00:00 9,2 3,0 - - 26 14 - - W 1021,4 50 36 0,0
01.04.2020 10:00:00 7,2 2,5 7,2 6,9 21 11 - - W 1022,1 40 12 0,0
01.04.2020 09:00:00 6,5 3,2 - - 16 9 - - WSW 1022,8 24 0 0,0
01.04.2020 08:00:00 5,3 3,0 - - 15 8 - - WSW 1023,3 30 6 0,0
01.04.2020 07:00:00 5,2 2,3 - - 16 9 - - WSW 1023,8 40 0 0,0
01.04.2020 06:00:00 5,7 1,8 - - 13 7 - - W 1024,5 45 0 0,0
01.04.2020 05:00:00 5,8 1,8 - - 9 5 - - W 1025,1 35 0 0,0
01.04.2020 04:00:00 6,1 2,3 - - 15 8 - - WSW 1025,7 35 0 0,0
01.04.2020 03:00:00 6,1 2,7 - - 11 6 - - WSW 1026,4 35 0 0,0
01.04.2020 02:00:00 6,5 2,6 - - 11 6 - - WSW 1027,3 50 0 0,0
01.04.2020 01:00:00 6,8 2,5 - - 11 6 - - WSW 1028,0 50 - 0,0
01.04.2020 00:00:00 7,3 2,6 - - 9 5 - - W 1028,6 50 0 0,0
31.03.2020 23:00:00 7,6 2,7 - - 8 4 - - WSW 1029,3 50 0 0,0
31.03.2020 22:00:00 8,0 2,7 - - 8 4 - - W 1029,8 50 0 0,0
31.03.2020 21:00:00 8,6 2,7 - - 5 3 - - NNW 1030,0 50 0 0,0
31.03.2020 20:00:00 9,1 2,3 - - 5 3 - - W 1030,2 50 0 0,0
31.03.2020 19:00:00 9,6 2,1 - - 9 5 - - W 1030,5 50 0 0,0
31.03.2020 18:00:00 10,5 1,4 - - 9 5 - - W 1030,8 50 0 0,0
31.03.2020 17:00:00 10,5 1,0 - - 11 6 - - W 1031,4 40 0 -
31.03.2020 16:00:00 10,4 1,0 - - 9 5 - - W 1032,1 50 6 0,0
31.03.2020 15:00:00 10,9 1,6 - - 13 7 - - WNW 1033,0 40 6 0,0
31.03.2020 14:00:00 9,6 1,1 - - 11 6 - - NW 1033,7 50 6 0,0
31.03.2020 13:00:00 9,2 0,0 - - 11 6 - - W 1034,1 35 6 0,0
31.03.2020 12:00:00 8,3 1,3 - - 9 5 - - W 1034,8 40 18 0,0
31.03.2020 11:00:00 7,4 2,3 - - 11 6 - - W 1035,6 50 0 0,0
31.03.2020 10:00:00 6,8 2,8 6,9 6,7 5 3 - - WNW 1036,3 40 0 0,0
31.03.2020 09:00:00 6,0 4,2 - - 5 3 - - WSW 1036,6 45 0 0,0
31.03.2020 08:00:00 5,3 3,7 - - 8 4 - - W 1036,7 35 0 0,0
31.03.2020 07:00:00 5,0 4,1 - - 5 3 - - WSW 1037,0 35 0 0,0
31.03.2020 06:00:00 4,9 4,1 - - 4 2 - - SSW 1036,8 30 0 0,0
31.03.2020 05:00:00 5,1 4,4 - - 4 2 - - SW 1037,0 30 0 0,0
31.03.2020 04:00:00 5,3 4,5 - - 2 1 - - SSW 1037,1 35 0 0,0
31.03.2020 03:00:00 5,3 4,4 - - 4 2 - - WSW 1037,3 26 0 0,0
31.03.2020 02:00:00 5,8 5,2 - - 4 2 - - WSW 1037,5 22 - 0,0
31.03.2020 01:00:00 6,0 5,3 - - 2 1 - - N 1037,6 26 - 0,0
31.03.2020 00:00:00 6,0 5,2 - - 0 0 - - N 1037,7 50 0 0,0
30.03.2020 23:00:00 6,1 5,5 - - 2 1 - - WNW 1037,8 45 0 0,0
30.03.2020 22:00:00 5,7 4,9 - - 0 0 - - N 1037,9 45 0 0,0
30.03.2020 21:00:00 6,0 4,6 - - 5 3 - - SSE 1037,8 40 0 0,2
30.03.2020 20:00:00 7,3 5,9 - - 8 4 - - ENE 1037,5 50 0 0,2

tt = Température de l'air
td = dewpoint
tt -20cm = Température de l'air -20cm
tt -100cm = Température de l'air -100cm
ff = Vitesse du vent
fx = gusts
dd = Direction du vent
ppp = reduced air pressure
vv = visibility
sd = Ensoleillement
rr = Quantités de précipitations

stations d'obs. à proximité